CSN3628 ZUCK-ZHHH

Flight info

Callsign CSN3628
Flight time 1h 11m
Altitude 26600
Route OLNER2X OLNER B213 WTM WTM4T
Aircraft A320/M-SDE3FGHIRWY/LB1

Departure

Time 2026-05-06 01:07
Airport Chongqing Jiangbei International Airport (ZUCK)

Arrival

Time 2026-05-06 02:18
Airport Wuhan Tianhe International Airport (ZHHH)
Time Latitude Longitude Altitude Speed Heading
2026-05-06 00:36 29.73406 106.66303 1330 ft 0 kts 258°
2026-05-06 00:54 29.73406 106.66304 1330 ft 1 kts 258°
2026-05-06 00:54 29.73409 106.66320 1329 ft 4 kts 257°
2026-05-06 00:54 29.73415 106.66351 1331 ft 4 kts 256°
2026-05-06 00:54 29.73422 106.66381 1330 ft 4 kts 256°
2026-05-06 00:55 29.73427 106.66406 1329 ft 4 kts 246°
2026-05-06 00:55 29.73442 106.66430 1329 ft 4 kts 216°
2026-05-06 00:55 29.73457 106.66440 1329 ft 0 kts 197°
2026-05-06 00:58 29.73435 106.66432 1328 ft 6 kts 197°
2026-05-06 00:58 29.73389 106.66416 1327 ft 9 kts 197°
2026-05-06 00:59 29.73327 106.66394 1328 ft 9 kts 197°
2026-05-06 00:59 29.73260 106.66380 1328 ft 11 kts 167°
2026-05-06 00:59 29.73213 106.66440 1327 ft 10 kts 153°
2026-05-06 00:59 29.73130 106.66423 1329 ft 15 kts 197°
2026-05-06 01:00 29.73032 106.66388 1328 ft 14 kts 197°
2026-05-06 01:00 29.72950 106.66360 1332 ft 11 kts 196°
2026-05-06 01:00 29.72874 106.66334 1330 ft 12 kts 197°
2026-05-06 01:00 29.72795 106.66307 1330 ft 13 kts 197°
2026-05-06 01:01 29.72690 106.66270 1331 ft 18 kts 197°
2026-05-06 01:01 29.72570 106.66229 1332 ft 18 kts 197°
2026-05-06 01:01 29.72457 106.66191 1332 ft 16 kts 196°
2026-05-06 01:01 29.72353 106.66154 1333 ft 18 kts 197°
2026-05-06 01:02 29.72215 106.66105 1335 ft 21 kts 197°
2026-05-06 01:02 29.72073 106.66054 1338 ft 22 kts 197°
2026-05-06 01:02 29.71928 106.66002 1340 ft 22 kts 197°
2026-05-06 01:02 29.71783 106.65950 1341 ft 22 kts 196°
2026-05-06 01:03 29.71663 106.65918 1338 ft 11 kts 164°
2026-05-06 01:03 29.71632 106.65989 1339 ft 10 kts 108°
2026-05-06 01:03 29.71615 106.66051 1339 ft 0 kts 108°
2026-05-06 01:04 29.71614 106.66054 1336 ft 4 kts 108°
2026-05-06 01:04 29.71611 106.66065 1336 ft 0 kts 108°
2026-05-06 01:04 29.71611 106.66066 1336 ft 0 kts 108°
2026-05-06 01:05 29.71608 106.66074 1336 ft 5 kts 108°
2026-05-06 01:05 29.71595 106.66122 1336 ft 6 kts 108°
2026-05-06 01:05 29.71583 106.66163 1336 ft 4 kts 108°
2026-05-06 01:05 29.71591 106.66190 1339 ft 4 kts 52°
2026-05-06 01:06 29.71622 106.66207 1336 ft 7 kts 17°
2026-05-06 01:06 29.71793 106.66266 1338 ft 58 kts 17°
2026-05-06 01:06 29.72398 106.66476 1330 ft 121 kts 17°
2026-05-06 01:06 29.73369 106.66811 1323 ft 169 kts 17°
2026-05-06 01:07 29.74567 106.67223 1716 ft 182 kts 17°
2026-05-06 01:07 29.75798 106.67639 2360 ft 187 kts 21°
2026-05-06 01:07 29.77075 106.68176 2721 ft 204 kts 31°
2026-05-06 01:07 29.78365 106.69007 3029 ft 221 kts 35°
2026-05-06 01:08 29.79724 106.70004 3289 ft 248 kts 37°
2026-05-06 01:08 29.81243 106.71162 3662 ft 273 kts 37°
2026-05-06 01:08 29.82881 106.72391 4311 ft 286 kts 36°
2026-05-06 01:08 29.84564 106.73685 5001 ft 293 kts 42°
2026-05-06 01:09 29.85940 106.75407 5753 ft 293 kts 60°
2026-05-06 01:09 29.86804 106.77523 6515 ft 292 kts 78°
2026-05-06 01:09 29.87129 106.79827 7322 ft 292 kts 90°
2026-05-06 01:09 29.87264 106.82176 8148 ft 295 kts 89°
2026-05-06 01:10 29.87407 106.84556 8966 ft 298 kts 88°
2026-05-06 01:10 29.87553 106.86929 9714 ft 303 kts 88°
2026-05-06 01:10 29.87704 106.89366 10413 ft 307 kts 88°
2026-05-06 01:10 29.87860 106.91880 10788 ft 325 kts 88°
2026-05-06 01:11 29.88027 106.94578 11004 ft 348 kts 88°
2026-05-06 01:11 29.88199 106.97409 11514 ft 357 kts 88°
2026-05-06 01:11 29.88372 107.00278 12158 ft 362 kts 88°
2026-05-06 01:11 29.88549 107.03194 12817 ft 366 kts 88°
2026-05-06 01:12 29.88728 107.06144 13464 ft 370 kts 88°
2026-05-06 01:12 29.88910 107.09123 14012 ft 375 kts 88°
2026-05-06 01:12 29.89094 107.12099 14549 ft 379 kts 88°
2026-05-06 01:12 29.89281 107.15150 15098 ft 384 kts 88°
2026-05-06 01:13 29.89468 107.18240 15645 ft 388 kts 87°
2026-05-06 01:13 29.89654 107.21359 16181 ft 392 kts 88°
2026-05-06 01:13 29.89838 107.24510 16715 ft 396 kts 87°
2026-05-06 01:13 29.90023 107.27692 17238 ft 400 kts 87°
2026-05-06 01:14 29.90400 107.34165 18234 ft 409 kts 87°
2026-05-06 01:14 29.90595 107.37451 18663 ft 412 kts 87°
2026-05-06 01:14 29.90788 107.40728 19090 ft 416 kts 88°
2026-05-06 01:15 29.90979 107.44072 19475 ft 421 kts 88°
2026-05-06 01:15 29.91172 107.47455 19907 ft 424 kts 88°
2026-05-06 01:15 29.91364 107.50863 20313 ft 427 kts 88°
2026-05-06 01:15 29.91554 107.54299 20729 ft 430 kts 88°
2026-05-06 01:16 29.91748 107.57755 21136 ft 433 kts 87°
2026-05-06 01:16 29.91944 107.61235 21554 ft 437 kts 87°
2026-05-06 01:16 29.92143 107.64751 21963 ft 440 kts 87°
2026-05-06 01:16 29.92338 107.68228 22338 ft 443 kts 87°
2026-05-06 01:17 29.92538 107.71790 22708 ft 446 kts 87°
2026-05-06 01:17 29.92738 107.75367 23119 ft 448 kts 87°
2026-05-06 01:17 29.92937 107.78960 23491 ft 450 kts 87°
2026-05-06 01:17 29.93312 107.82561 23809 ft 453 kts 79°
2026-05-06 01:18 29.94121 107.86081 24131 ft 456 kts 73°
2026-05-06 01:18 29.95023 107.89601 24463 ft 458 kts 73°
2026-05-06 01:18 29.95911 107.93100 24772 ft 461 kts 73°
2026-05-06 01:18 29.96806 107.96655 25114 ft 463 kts 73°
2026-05-06 01:19 29.97701 108.00228 25441 ft 465 kts 73°
2026-05-06 01:19 29.98604 108.03823 25761 ft 467 kts 73°
2026-05-06 01:19 29.99508 108.07420 26088 ft 468 kts 73°
2026-05-06 01:19 30.00419 108.11042 26344 ft 470 kts 73°
2026-05-06 01:20 30.01327 108.14647 26403 ft 462 kts 73°
2026-05-06 01:20 30.02212 108.18174 26430 ft 455 kts 73°
2026-05-06 01:20 30.03086 108.21673 26435 ft 453 kts 73°
2026-05-06 01:20 30.03956 108.25160 26413 ft 452 kts 73°
2026-05-06 01:21 30.04823 108.28642 26433 ft 451 kts 73°
2026-05-06 01:21 30.05691 108.32133 26432 ft 451 kts 74°
2026-05-06 01:21 30.06550 108.35582 26431 ft 452 kts 73°
2026-05-06 01:21 30.07417 108.39065 26437 ft 451 kts 73°
2026-05-06 01:22 30.08286 108.42554 26429 ft 451 kts 73°
2026-05-06 01:22 30.09156 108.46040 26442 ft 451 kts 73°
2026-05-06 01:22 30.10024 108.49518 26447 ft 450 kts 73°
2026-05-06 01:22 30.10890 108.52995 26451 ft 450 kts 74°
2026-05-06 01:23 30.11752 108.56465 26450 ft 449 kts 73°
2026-05-06 01:23 30.12667 108.59913 26471 ft 449 kts 72°
2026-05-06 01:23 30.13651 108.63332 26469 ft 448 kts 71°
2026-05-06 01:23 30.14677 108.66740 26467 ft 448 kts 70°
2026-05-06 01:24 30.15698 108.70097 26463 ft 448 kts 70°
2026-05-06 01:24 30.16723 108.73506 26455 ft 448 kts 70°
2026-05-06 01:24 30.17732 108.76915 26447 ft 449 kts 71°
2026-05-06 01:24 30.18733 108.80339 26439 ft 449 kts 71°
2026-05-06 01:25 30.19727 108.83765 26443 ft 450 kts 71°
2026-05-06 01:25 30.20720 108.87204 26458 ft 450 kts 71°
2026-05-06 01:25 30.21710 108.90642 26458 ft 450 kts 71°
2026-05-06 01:25 30.22678 108.94037 26457 ft 450 kts 72°
2026-05-06 01:26 30.23592 108.97493 26458 ft 450 kts 73°
2026-05-06 01:26 30.24450 109.00972 26466 ft 450 kts 74°
2026-05-06 01:26 30.25276 109.04459 26469 ft 450 kts 75°
2026-05-06 01:26 30.26095 109.07958 26474 ft 450 kts 75°
2026-05-06 01:27 30.26919 109.11447 26463 ft 450 kts 75°
2026-05-06 01:27 30.27756 109.14933 26464 ft 449 kts 74°
2026-05-06 01:27 30.28605 109.18414 26481 ft 449 kts 74°
2026-05-06 01:27 30.29460 109.21894 26479 ft 448 kts 74°
2026-05-06 01:28 30.30313 109.25357 26479 ft 448 kts 74°
2026-05-06 01:28 30.31168 109.28824 26480 ft 448 kts 74°
2026-05-06 01:28 30.32009 109.32242 26477 ft 447 kts 74°
2026-05-06 01:28 30.32854 109.35707 26492 ft 447 kts 74°
2026-05-06 01:29 30.33697 109.39181 26472 ft 448 kts 74°
2026-05-06 01:29 30.34545 109.42660 26470 ft 449 kts 74°
2026-05-06 01:29 30.35394 109.46140 26461 ft 449 kts 74°
2026-05-06 01:29 30.36243 109.49628 26465 ft 450 kts 74°
2026-05-06 01:30 30.37090 109.53126 26457 ft 450 kts 74°
2026-05-06 01:30 30.37928 109.56615 26469 ft 450 kts 74°
2026-05-06 01:30 30.38753 109.60075 26467 ft 450 kts 76°
2026-05-06 01:30 30.39347 109.63628 26470 ft 450 kts 81°
2026-05-06 01:31 30.39859 109.67215 26481 ft 450 kts 81°
2026-05-06 01:31 30.40378 109.70790 26482 ft 450 kts 81°
2026-05-06 01:31 30.40906 109.74360 26479 ft 450 kts 81°
2026-05-06 01:31 30.41440 109.77933 26480 ft 450 kts 81°
2026-05-06 01:32 30.41975 109.81514 26476 ft 450 kts 80°
2026-05-06 01:32 30.42504 109.85088 26470 ft 449 kts 81°
2026-05-06 01:32 30.43028 109.88662 26477 ft 449 kts 81°
2026-05-06 01:32 30.43547 109.92230 26476 ft 449 kts 81°
2026-05-06 01:33 30.44065 109.95800 26485 ft 449 kts 81°
2026-05-06 01:33 30.44573 109.99324 26484 ft 449 kts 81°
2026-05-06 01:33 30.45085 110.02886 26485 ft 449 kts 81°
2026-05-06 01:33 30.45601 110.06462 26482 ft 448 kts 81°
2026-05-06 01:34 30.46119 110.10028 26487 ft 448 kts 80°
2026-05-06 01:34 30.46637 110.13593 26489 ft 449 kts 81°
2026-05-06 01:34 30.47151 110.17159 26487 ft 448 kts 81°
2026-05-06 01:34 30.47662 110.20730 26491 ft 448 kts 81°
2026-05-06 01:35 30.48172 110.24294 26475 ft 448 kts 81°
2026-05-06 01:35 30.48683 110.27861 26484 ft 448 kts 81°
2026-05-06 01:35 30.49193 110.31421 26474 ft 448 kts 81°
2026-05-06 01:35 30.49703 110.34981 26480 ft 448 kts 81°
2026-05-06 01:36 30.50205 110.38500 26472 ft 448 kts 81°
2026-05-06 01:36 30.50708 110.42060 26475 ft 448 kts 81°
2026-05-06 01:36 30.51209 110.45621 26467 ft 447 kts 81°
2026-05-06 01:36 30.51711 110.49182 26472 ft 447 kts 81°
2026-05-06 01:37 30.52213 110.52740 26468 ft 447 kts 81°
2026-05-06 01:37 30.52713 110.56299 26464 ft 447 kts 81°
2026-05-06 01:37 30.53213 110.59860 26467 ft 447 kts 81°
2026-05-06 01:37 30.53712 110.63426 26472 ft 446 kts 81°
2026-05-06 01:38 30.54209 110.66980 26470 ft 447 kts 81°
2026-05-06 01:38 30.54706 110.70539 26473 ft 446 kts 81°
2026-05-06 01:38 30.55193 110.74044 26467 ft 446 kts 82°
2026-05-06 01:38 30.55685 110.77610 26457 ft 446 kts 81°
2026-05-06 01:39 30.56178 110.81174 26450 ft 446 kts 81°
2026-05-06 01:39 30.56672 110.84726 26463 ft 446 kts 81°
2026-05-06 01:39 30.57165 110.88275 26453 ft 445 kts 81°
2026-05-06 01:39 30.57656 110.91823 26454 ft 445 kts 81°
2026-05-06 01:40 30.58146 110.95382 26446 ft 445 kts 81°
2026-05-06 01:40 30.58629 110.98924 26447 ft 444 kts 81°
2026-05-06 01:40 30.59105 111.02429 26455 ft 445 kts 81°
2026-05-06 01:40 30.59587 111.05970 26446 ft 445 kts 81°
2026-05-06 01:41 30.60073 111.09522 26431 ft 445 kts 82°
2026-05-06 01:41 30.60556 111.13070 26431 ft 446 kts 81°
2026-05-06 01:41 30.61040 111.16627 26426 ft 446 kts 81°
2026-05-06 01:41 30.61523 111.20186 26429 ft 447 kts 81°
2026-05-06 01:42 30.62006 111.23753 26423 ft 447 kts 81°
2026-05-06 01:42 30.62489 111.27323 26426 ft 447 kts 81°
2026-05-06 01:42 30.62972 111.30888 26414 ft 447 kts 81°
2026-05-06 01:42 30.63453 111.34465 26421 ft 447 kts 81°
2026-05-06 01:43 30.63923 111.37986 26420 ft 447 kts 81°
2026-05-06 01:43 30.64398 111.41557 26413 ft 447 kts 81°
2026-05-06 01:43 30.64872 111.45132 26414 ft 448 kts 81°
2026-05-06 01:43 30.65274 111.48720 26417 ft 447 kts 87°
2026-05-06 01:44 30.65462 111.52330 26416 ft 447 kts 87°
2026-05-06 01:44 30.65647 111.55934 26424 ft 447 kts 87°
2026-05-06 01:44 30.65770 111.58326 26430 ft 447 kts 87°
2026-05-06 01:44 30.65956 111.61934 26430 ft 447 kts 87°
2026-05-06 01:45 30.66139 111.65542 26419 ft 447 kts 87°
2026-05-06 01:45 30.66323 111.69148 26431 ft 447 kts 87°
2026-05-06 01:45 30.66508 111.72757 26428 ft 447 kts 87°
2026-05-06 01:45 30.66696 111.76373 26430 ft 448 kts 87°
2026-05-06 01:46 30.66884 111.79987 26430 ft 448 kts 87°
2026-05-06 01:46 30.67064 111.83554 26430 ft 447 kts 87°
2026-05-06 01:46 30.67244 111.87167 26433 ft 447 kts 87°
2026-05-06 01:46 30.67422 111.90770 26436 ft 447 kts 87°
2026-05-06 01:47 30.67600 111.94374 26434 ft 447 kts 87°
2026-05-06 01:47 30.67783 111.97974 26439 ft 446 kts 87°
2026-05-06 01:47 30.68005 112.01570 26436 ft 446 kts 86°
2026-05-06 01:47 30.68259 112.05164 26448 ft 446 kts 86°
2026-05-06 01:48 30.68529 112.08755 26449 ft 446 kts 85°
2026-05-06 01:48 30.68798 112.12353 26454 ft 446 kts 86°
2026-05-06 01:48 30.69058 112.15953 26431 ft 446 kts 86°
2026-05-06 01:48 30.69305 112.19537 26441 ft 445 kts 86°
2026-05-06 01:49 30.69543 112.23128 26451 ft 445 kts 86°
2026-05-06 01:49 30.69773 112.26672 26451 ft 445 kts 86°
2026-05-06 01:49 30.70055 112.30986 26434 ft 445 kts 86°
2026-05-06 01:49 30.70292 112.34567 26446 ft 445 kts 86°
2026-05-06 01:50 30.70534 112.38152 26442 ft 445 kts 86°
2026-05-06 01:50 30.70780 112.41738 26452 ft 445 kts 86°
2026-05-06 01:50 30.71021 112.45329 26434 ft 445 kts 86°
2026-05-06 01:50 30.71257 112.48920 26442 ft 445 kts 86°
2026-05-06 01:51 30.71489 112.52505 26438 ft 445 kts 86°
2026-05-06 01:51 30.71717 112.56089 26437 ft 445 kts 86°
2026-05-06 01:51 30.71944 112.59676 26437 ft 445 kts 86°
2026-05-06 01:51 30.72170 112.63220 26436 ft 445 kts 86°
2026-05-06 01:52 30.72401 112.66803 26425 ft 446 kts 86°
2026-05-06 01:52 30.72720 112.70421 26445 ft 450 kts 78°
2026-05-06 01:52 30.73434 112.73947 26449 ft 447 kts 79°
2026-05-06 01:52 30.73883 112.77522 26450 ft 446 kts 85°
2026-05-06 01:53 30.74053 112.81119 26448 ft 445 kts 90°
2026-05-06 01:53 30.74083 112.84718 26447 ft 445 kts 91°
2026-05-06 01:53 30.74093 112.88314 26452 ft 445 kts 90°
2026-05-06 01:53 30.74149 112.91913 26452 ft 445 kts 89°
2026-05-06 01:54 30.74270 112.95485 26453 ft 445 kts 88°
2026-05-06 01:54 30.74450 112.99069 26453 ft 445 kts 87°
2026-05-06 01:54 30.74665 113.02704 26452 ft 445 kts 86°
2026-05-06 01:54 30.74885 113.06244 26451 ft 445 kts 86°
2026-05-06 01:55 30.75104 113.09837 26446 ft 445 kts 87°
2026-05-06 01:55 30.75299 113.13432 26451 ft 445 kts 90°
2026-05-06 01:55 30.75172 113.17019 26449 ft 443 kts 96°
2026-05-06 01:55 30.74933 113.20604 26444 ft 444 kts 96°
2026-05-06 01:56 30.74701 113.24139 26447 ft 444 kts 96°
2026-05-06 01:56 30.74473 113.27714 26438 ft 444 kts 95°
2026-05-06 01:56 30.74249 113.31290 26448 ft 444 kts 95°
2026-05-06 01:56 30.74025 113.34868 26441 ft 444 kts 95°
2026-05-06 01:57 30.73799 113.38450 26443 ft 444 kts 95°
2026-05-06 01:57 30.73572 113.42031 26450 ft 444 kts 96°
2026-05-06 01:57 30.73342 113.45612 26443 ft 444 kts 95°
2026-05-06 01:57 30.73111 113.49195 26447 ft 444 kts 95°
2026-05-06 01:58 30.72877 113.52783 26441 ft 444 kts 96°
2026-05-06 01:58 30.72637 113.56359 26444 ft 444 kts 96°
2026-05-06 01:58 30.72398 113.59895 26442 ft 444 kts 96°
2026-05-06 01:58 30.72155 113.63479 26439 ft 444 kts 96°
2026-05-06 01:59 30.71907 113.67099 26460 ft 455 kts 96°
2026-05-06 01:59 30.71652 113.70795 26440 ft 461 kts 96°
2026-05-06 01:59 30.71396 113.74516 26443 ft 463 kts 96°
2026-05-06 01:59 30.71143 113.78245 26455 ft 463 kts 96°
2026-05-06 02:00 30.70891 113.81964 26338 ft 459 kts 96°
2026-05-06 02:00 30.70642 113.85614 25468 ft 450 kts 96°
2026-05-06 02:00 30.70392 113.89223 24591 ft 443 kts 96°
2026-05-06 02:00 30.70143 113.92768 23757 ft 436 kts 96°
2026-05-06 02:01 30.69834 113.96231 22848 ft 427 kts 102°
2026-05-06 02:01 30.69062 113.99476 21946 ft 417 kts 113°
2026-05-06 02:01 30.68014 114.02592 21033 ft 411 kts 114°
2026-05-06 02:01 30.66977 114.05663 20168 ft 406 kts 114°
2026-05-06 02:02 30.65953 114.08680 19538 ft 395 kts 114°
2026-05-06 02:02 30.64963 114.11599 19063 ft 381 kts 114°
2026-05-06 02:02 30.64323 114.13485 18744 ft 375 kts 114°
2026-05-06 02:02 30.63525 114.16374 18279 ft 378 kts 101°
2026-05-06 02:03 30.63443 114.19425 17756 ft 381 kts 83°
2026-05-06 02:03 30.64156 114.22377 17269 ft 381 kts 65°
2026-05-06 02:03 30.65589 114.24944 16778 ft 379 kts 47°
2026-05-06 02:03 30.67519 114.27025 16294 ft 377 kts 40°
2026-05-06 02:04 30.69494 114.29035 15813 ft 377 kts 40°
2026-05-06 02:04 30.71466 114.31047 15330 ft 377 kts 40°
2026-05-06 02:04 30.73404 114.33031 14905 ft 375 kts 40°
2026-05-06 02:04 30.75359 114.35036 14449 ft 374 kts 40°
2026-05-06 02:05 30.77308 114.37037 14011 ft 372 kts 41°
2026-05-06 02:05 30.79248 114.39029 13521 ft 371 kts 41°
2026-05-06 02:05 30.81151 114.40978 13049 ft 357 kts 41°
2026-05-06 02:05 30.82980 114.42851 12622 ft 343 kts 41°
2026-05-06 02:06 30.84742 114.44659 12214 ft 331 kts 41°
2026-05-06 02:06 30.86442 114.46408 11810 ft 321 kts 41°
2026-05-06 02:06 30.88092 114.48110 11410 ft 315 kts 41°
2026-05-06 02:06 30.89705 114.49773 11144 ft 302 kts 42°
2026-05-06 02:07 30.91214 114.51332 10932 ft 288 kts 42°
2026-05-06 02:07 30.92695 114.52863 10637 ft 281 kts 42°
2026-05-06 02:07 30.94154 114.54369 10397 ft 279 kts 42°
2026-05-06 02:07 30.95611 114.55874 10168 ft 280 kts 42°
2026-05-06 02:08 30.97064 114.57374 9934 ft 278 kts 42°
2026-05-06 02:08 30.98510 114.58866 9610 ft 278 kts 42°
2026-05-06 02:08 31.00142 114.60074 9192 ft 280 kts 15°
2026-05-06 02:08 31.02048 114.60202 8858 ft 275 kts 345°
2026-05-06 02:09 31.03733 114.59195 8353 ft 272 kts 311°
2026-05-06 02:09 31.04967 114.57604 8207 ft 256 kts 308°
2026-05-06 02:09 31.06005 114.56051 8082 ft 235 kts 292°
2026-05-06 02:09 31.06416 114.54257 7504 ft 232 kts 264°
2026-05-06 02:10 31.06005 114.52435 6771 ft 236 kts 236°
2026-05-06 02:10 31.04909 114.51022 6187 ft 236 kts 219°
2026-05-06 02:10 31.03669 114.49753 5652 ft 237 kts 219°
2026-05-06 02:10 31.02467 114.48517 5473 ft 221 kts 220°
2026-05-06 02:11 31.01370 114.47386 5348 ft 205 kts 220°
2026-05-06 02:11 31.00332 114.46316 5217 ft 194 kts 220°
2026-05-06 02:11 30.99331 114.45284 5023 ft 192 kts 220°
2026-05-06 02:11 30.98324 114.44247 4767 ft 194 kts 220°
2026-05-06 02:12 30.97320 114.43212 4590 ft 189 kts 219°
2026-05-06 02:12 30.96358 114.42221 4373 ft 182 kts 220°
2026-05-06 02:12 30.95413 114.41249 4093 ft 180 kts 220°
2026-05-06 02:12 30.94479 114.40287 3813 ft 178 kts 220°
2026-05-06 02:13 30.93545 114.39328 3556 ft 178 kts 220°
2026-05-06 02:13 30.92619 114.38374 3356 ft 176 kts 220°
2026-05-06 02:13 30.91723 114.37452 3248 ft 168 kts 220°
2026-05-06 02:13 30.90853 114.36558 3000 ft 167 kts 220°
2026-05-06 02:14 30.89987 114.35669 2808 ft 168 kts 220°
2026-05-06 02:14 30.89103 114.34760 2856 ft 174 kts 220°
2026-05-06 02:14 30.88199 114.33832 2637 ft 171 kts 219°
2026-05-06 02:14 30.87325 114.32933 2414 ft 165 kts 218°
2026-05-06 02:15 30.86489 114.32073 2222 ft 153 kts 218°
2026-05-06 02:15 30.85726 114.31289 2020 ft 142 kts 217°
2026-05-06 02:15 30.84998 114.30542 1841 ft 138 kts 217°
2026-05-06 02:15 30.84272 114.29798 1662 ft 139 kts 217°
2026-05-06 02:16 30.83542 114.29050 1477 ft 140 kts 217°
2026-05-06 02:16 30.82805 114.28294 1282 ft 141 kts 216°
2026-05-06 02:16 30.82064 114.27535 1108 ft 143 kts 216°
2026-05-06 02:16 30.81328 114.26778 963 ft 144 kts 217°
2026-05-06 02:17 30.80563 114.26010 716 ft 147 kts 217°
2026-05-06 02:17 30.79790 114.25207 598 ft 150 kts 219°
2026-05-06 02:17 30.78999 114.24392 385 ft 152 kts 219°
2026-05-06 02:17 30.78213 114.23583 157 ft 150 kts 220°
2026-05-06 02:18 30.77472 114.22822 111 ft 129 kts 220°
2026-05-06 02:18 30.76918 114.22258 109 ft 81 kts 221°
2026-05-06 02:18 30.76603 114.21933 109 ft 43 kts 223°
2026-05-06 02:18 30.76486 114.21712 108 ft 27 kts 248°
2026-05-06 02:19 30.76504 114.21587 108 ft 14 kts 346°
2026-05-06 02:19 30.76582 114.21648 108 ft 17 kts 43°
2026-05-06 02:19 30.76681 114.21750 108 ft 20 kts 41°
2026-05-06 02:19 30.76790 114.21862 108 ft 22 kts 41°
2026-05-06 02:20 30.77007 114.22074 108 ft 13 kts 17°
2026-05-06 02:20 30.77080 114.22033 107 ft 11 kts 338°
2026-05-06 02:20 30.77136 114.21984 107 ft 9 kts 311°
2026-05-06 02:21 30.77164 114.21948 107 ft 2 kts 311°
2026-05-06 02:21 30.77171 114.21938 107 ft 1 kts 311°
2026-05-06 02:21 30.77175 114.21933 107 ft 0 kts 311°